Location: �quirre
(50.4736°N, 2.2351°E)
Time: 19:35:14
(UTC+00:00)

Cosmos 2219 - Pass Details

Date: 07 August 2020
Orbit: 834 x 860 km, 71.1° (Epoch: 21 September)

Event Time Altitude Azimuth Distance (km) Brightness Sun altitude
Exits shadow 00:45:23 28° 134° (SE) 1,535 4.3 -22.3°
Maximum altitude 00:46:51 32° 106° (ESE) 1,412 4.3 -22.3°
Drops below altitude 10° 00:51:45 10° 45° (NE) 2,454 6.4 -22.1°
Sets 00:54:25 0° 36° (NE) 3,393 7.5 -22.0°
